Location: *
(48.8780°N, 19.2358°E)
Time: 19:45:20
(UTC+00:00)

Cosmos 2058 - Pass Details

Date: 18 October 2019
Orbit: 563 x 583 km, 82.5° (Epoch: 11 November)

Event Time Altitude Azimuth Distance (km) Brightness Sun altitude
Rises 17:18:49 0° 357° (N) 2,821 6.5 -15.6°
Reaches altitude 10° 17:21:12 10° 7° (N) 1,916 5.5 -16.0°
Maximum altitude 17:25:03 33° 72° (ENE) 996 3.6 -16.6°
Enters shadow 17:25:22 32° 83° (E) 1,005 3.6 -16.7°
